Terug naar catalogus

COSMOS 2251 DEB

ActiefLEO
NORAD 34728·DEBRIS·🇷🇺 Russia

Gelanceerd Jun 16, 1993 vanaf Plesetsk Cosmodrome

Loading…

Volgende Passages (komende 24 uur)

TLE

VersSource: Space-Track

Epoch: Sep 12, 2026, 21:59 UTC

1 34728U 93036YW  26255.91664816  .00002217  00000-0  34731-3 0  9999
2 34728  74.0132  77.8587 0041661 167.7593 192.4602 14.72781210928344

Volg COSMOS 2251 DEB in realtime met AllMySat

Download on the App Store